| time (UTC) | temp F | wind direction | speed MPH | gust MPH | rain 1hr in | rain 24hr in | rain mn in | humidity % | barometer mb |
| 20260904005306 | 72 | 91 | 0.0 | 1.0 | 0.00 | 0.14 | 0.14 | 99 | 1011.0 |
| 20260904004800 | 72 | 87 | 0.0 | 2.0 | 0.00 | 0.14 | 0.14 | 99 | 1011.3 |
| 20260904004255 | 72 | 242 | 0.0 | 0.0 | 0.00 | 0.14 | 0.14 | 99 | 1011.2 |
| 20260904003750 | 72 | 242 | 0.0 | 0.0 | 0.00 | 0.14 | 0.14 | 99 | 1010.9 |
| 20260904003246 | 72 | 242 | 0.0 | 0.0 | 0.00 | 0.14 | 0.14 | 99 | 1010.8 |
| 20260904002742 | 73 | 242 | 0.0 | 0.0 | 0.00 | 0.14 | 0.14 | 99 | 1011.0 |
| 20260904002238 | 73 | 242 | 0.0 | 1.0 | 0.00 | 0.14 | 0.14 | 99 | 1011.2 |
| 20260904001731 | 73 | 30 | 0.0 | 0.0 | 0.00 | 0.14 | 0.14 | 99 | 1011.2 |
| 20260904001226 | 73 | 115 | 0.0 | 0.0 | 0.00 | 0.14 | 0.14 | 99 | 1010.7 |
| 20260904000721 | 73 | 115 | 0.0 | 1.0 | 0.00 | 0.14 | 0.14 | 99 | 1010.6 |
| 20260904000218 | 73 | 91 | 0.0 | 1.0 | 0.00 | 0.14 | 0.14 | 99 | 1010.6 |
| 20260903235715 | 73 | 352 | 0.0 | 2.0 | 0.00 | 0.14 | 0.14 | 99 | 1010.1 |
| 20260903235212 | 73 | 91 | 0.0 | 1.0 | 0.00 | 0.14 | 0.14 | 99 | 1010.2 |
| 20260903234711 | 74 | 49 | 0.0 | 0.0 | 0.00 | 0.14 | 0.14 | 99 | 1010.1 |
| 20260903234208 | 74 | 49 | 0.0 | 1.0 | 0.00 | 0.14 | 0.14 | 99 | 1010.3 |
| 20260903233704 | 74 | 158 | 1.0 | 2.0 | 0.00 | 0.14 | 0.14 | 99 | 1010.2 |
| 20260903233159 | 74 | 137 | 0.0 | 1.0 | 0.00 | 0.14 | 0.14 | 99 | 1010.5 |
| 20260903232653 | 75 | 112 | 1.0 | 2.0 | 0.00 | 0.14 | 0.14 | 99 | 1010.5 |
| 20260903232150 | 75 | 99 | 0.0 | 2.0 | 0.00 | 0.14 | 0.14 | 99 | 1010.3 |
| 20260903231649 | 75 | 107 | 0.0 | 1.0 | 0.00 | 0.14 | 0.14 | 99 | 1010.5 |
| 20260903231149 | 75 | 107 | 0.0 | 1.0 | 0.00 | 0.14 | 0.14 | 98 | 1010.3 |
| 20260903230645 | 76 | 125 | 0.0 | 1.0 | 0.00 | 0.14 | 0.14 | 98 | 1010.4 |
| 20260903230144 | 76 | 107 | 0.0 | 1.0 | 0.00 | 0.14 | 0.14 | 97 | 1010.1 |
| 20260903225641 | 77 | 9 | 0.0 | 0.0 | 0.00 | 0.14 | 0.14 | 97 | 1010.1 |
| 20260903225137 | 77 | 9 | 0.0 | 2.0 | 0.00 | 0.14 | 0.14 | 97 | 1010.3 |
| 20260903224633 | 77 | 73 | 2.0 | 2.0 | 0.00 | 0.14 | 0.14 | 97 | 1010.2 |
| 20260903224129 | 77 | 49 | 0.0 | 1.0 | 0.00 | 0.14 | 0.14 | 97 | 1010.2 |
| 20260903223624 | 77 | 66 | 0.0 | 1.0 | 0.00 | 0.14 | 0.14 | 97 | 1010.0 |
| 20260903223122 | 77 | 44 | 0.0 | 1.0 | 0.00 | 0.14 | 0.14 | 96 | 1010.1 |
| 20260903222618 | 77 | 162 | 0.0 | 0.0 | 0.00 | 0.14 | 0.14 | 95 | 1010.2 |
| 20260903222116 | 77 | 143 | 0.0 | 1.0 | 0.00 | 0.14 | 0.14 | 95 | 1010.3 |
| 20260903221612 | 77 | 49 | 0.0 | 0.0 | 0.00 | 0.14 | 0.14 | 94 | 1010.6 |
| 20260903221110 | 78 | 49 | 0.0 | 1.0 | 0.00 | 0.14 | 0.14 | 92 | 1010.4 |
| 20260903220609 | 78 | 55 | 0.0 | 0.0 | 0.00 | 0.14 | 0.14 | 91 | 1010.3 |
| 20260903220109 | 79 | 55 | 0.0 | 0.0 | 0.00 | 0.14 | 0.14 | 90 | 1010.4 |
| 20260903215607 | 79 | 55 | 0.0 | 1.0 | 0.00 | 0.14 | 0.14 | 89 | 1010.6 |
| 20260903215102 | 79 | 309 | 0.0 | 2.0 | 0.00 | 0.14 | 0.14 | 89 | 1010.3 |
| 20260903214602 | 79 | 267 | 2.0 | 3.0 | 0.00 | 0.14 | 0.14 | 88 | 1010.1 |
| 20260903214057 | 80 | 274 | 0.0 | 1.0 | 0.00 | 0.14 | 0.14 | 88 | 1010.1 |
| 20260903213552 | 80 | 295 | 0.0 | 2.0 | 0.00 | 0.14 | 0.14 | 86 | 1010.2 |
| 20260903213048 | 80 | 46 | 0.0 | 0.0 | 0.00 | 0.14 | 0.14 | 87 | 1010.4 |
| 20260903212543 | 80 | 262 | 1.0 | 2.0 | 0.00 | 0.14 | 0.14 | 84 | 1010.3 |
| 20260903212039 | 81 | 289 | 2.0 | 4.0 | 0.00 | 0.14 | 0.14 | 83 | 1010.3 |
| 20260903211534 | 80 | 275 | 3.0 | 5.0 | 0.00 | 0.14 | 0.14 | 85 | 1010.2 |
| 20260903211030 | 80 | 285 | 2.0 | 3.0 | 0.00 | 0.14 | 0.14 | 85 | 1010.1 |
| 20260903210525 | 80 | 307 | 2.0 | 4.0 | 0.00 | 0.14 | 0.14 | 86 | 1010.0 |
| 20260903210021 | 78 | 296 | 2.0 | 2.0 | 0.00 | 0.14 | 0.14 | 88 | 1010.2 |
| 20260903205520 | 79 | 150 | 0.0 | 0.0 | 0.00 | 0.14 | 0.14 | 89 | 1010.2 |
| 20260903205015 | 79 | 305 | 0.0 | 1.0 | 0.00 | 0.14 | 0.14 | 89 | 1010.3 |
| 20260903204510 | 78 | 217 | 0.0 | 1.0 | 0.00 | 0.14 | 0.14 | 90 | 1010.3 |
| 20260903204006 | 78 | 305 | 0.0 | 0.0 | 0.00 | 0.14 | 0.14 | 89 | 1010.4 |
| 20260903203501 | 79 | 305 | 0.0 | 0.0 | 0.00 | 0.14 | 0.14 | 89 | 1010.2 |
| 20260903203000 | 79 | 305 | 0.0 | 1.0 | 0.00 | 0.14 | 0.14 | 87 | 1010.3 |
| 20260903202457 | 79 | 312 | 0.0 | 2.0 | 0.00 | 0.14 | 0.14 | 87 | 1010.4 |
| 20260903201951 | 79 | 286 | 3.0 | 4.0 | 0.00 | 0.14 | 0.14 | 86 | 1010.4 |
| 20260903201446 | 80 | 324 | 0.0 | 4.0 | 0.00 | 0.14 | 0.14 | 84 | 1010.3 |
| 20260903200945 | 79 | 256 | 0.0 | 3.0 | 0.00 | 0.14 | 0.14 | 86 | 1010.3 |
| 20260903200440 | 79 | 44 | 0.0 | 2.0 | 0.00 | 0.14 | 0.14 | 85 | 1010.4 |
| 20260903195935 | 78 | 9 | 1.0 | 2.0 | 0.00 | 0.14 | 0.14 | 87 | 1010.4 |
| 20260903195432 | 78 | 50 | 0.0 | 1.0 | 0.00 | 0.14 | 0.14 | 88 | 1010.6 |
| 20260903194926 | 79 | 342 | 0.0 | 0.0 | 0.00 | 0.14 | 0.14 | 87 | 1010.6 |
| 20260903194421 | 79 | 342 | 0.0 | 1.0 | 0.00 | 0.14 | 0.14 | 88 | 1010.7 |
| 20260903193916 | 79 | 257 | 0.0 | 1.0 | 0.00 | 0.14 | 0.14 | 86 | 1010.7 |
| 20260903193413 | 80 | 348 | 0.0 | 3.0 | 0.00 | 0.14 | 0.14 | 84 | 1010.7 |
| 20260903192908 | 79 | 220 | 0.0 | 4.0 | 0.00 | 0.14 | 0.14 | 84 | 1010.7 |
| 20260903192404 | 80 | 33 | 2.0 | 4.0 | 0.00 | 0.14 | 0.14 | 82 | 1010.8 |
| 20260903191900 | 80 | 80 | 2.0 | 3.0 | 0.00 | 0.14 | 0.14 | 83 | 1010.9 |
| 20260903191356 | 79 | 260 | 1.0 | 5.0 | 0.00 | 0.14 | 0.14 | 84 | 1010.8 |
| 20260903190855 | 80 | 246 | 0.0 | 3.0 | 0.00 | 0.14 | 0.14 | 83 | 1010.9 |
| 20260903190350 | 80 | 257 | 1.0 | 3.0 | 0.00 | 0.14 | 0.14 | 81 | 1011.2 |
| 20260903185849 | 79 | 204 | 0.0 | 2.0 | 0.00 | 0.14 | 0.14 | 81 | 1011.3 |
| 20260903185344 | 80 | 275 | 3.0 | 5.0 | 0.00 | 0.14 | 0.14 | 81 | 1011.0 |
| 20260903184840 | 80 | 280 | 0.0 | 2.0 | 0.00 | 0.14 | 0.14 | 81 | 1011.0 |
| 20260903184337 | 79 | 253 | 1.0 | 2.0 | 0.00 | 0.14 | 0.14 | 84 | 1011.0 |
| 20260903183831 | 80 | 287 | 1.0 | 3.0 | 0.00 | 0.14 | 0.14 | 83 | 1011.2 |
| 20260903183326 | 81 | 321 | 3.0 | 5.0 | 0.00 | 0.14 | 0.14 | 81 | 1011.3 |
| 20260903182825 | 82 | 257 | 1.0 | 5.0 | 0.00 | 0.14 | 0.14 | 78 | 1011.3 |
| 20260903182319 | 82 | 49 | 1.0 | 5.0 | 0.00 | 0.14 | 0.14 | 76 | 1011.5 |
| 20260903181819 | 81 | 236 | 1.0 | 3.0 | 0.00 | 0.14 | 0.14 | 80 | 1011.2 |
| 20260903181314 | 81 | 17 | 1.0 | 4.0 | 0.00 | 0.14 | 0.14 | 79 | 1011.3 |
| 20260903180809 | 79 | 46 | 1.0 | 3.0 | 0.00 | 0.14 | 0.14 | 82 | 1011.3 |
| 20260903180308 | 79 | 111 | 2.0 | 5.0 | 0.00 | 0.14 | 0.14 | 82 | 1011.6 |
| 20260903175808 | 79 | 108 | 1.0 | 3.0 | 0.00 | 0.14 | 0.14 | 84 | 1011.4 |
| 20260903175307 | 79 | 252 | 2.0 | 5.0 | 0.00 | 0.14 | 0.14 | 82 | 1011.4 |
| 20260903174801 | 79 | 331 | 2.0 | 3.0 | 0.00 | 0.14 | 0.14 | 83 | 1011.4 |
| 20260903174256 | 79 | 276 | 1.0 | 2.0 | 0.00 | 0.14 | 0.14 | 83 | 1011.4 |
| 20260903173751 | 81 | 75 | 2.0 | 5.0 | 0.00 | 0.14 | 0.14 | 80 | 1011.5 |
| 20260903173247 | 80 | 231 | 2.0 | 4.0 | 0.00 | 0.14 | 0.14 | 81 | 1011.6 |
| 20260903172742 | 79 | 29 | 2.0 | 3.0 | 0.00 | 0.14 | 0.14 | 81 | 1011.6 |
| 20260903172237 | 79 | 340 | 3.0 | 4.0 | 0.00 | 0.14 | 0.14 | 81 | 1011.6 |
| 20260903171732 | 79 | 285 | 0.0 | 3.0 | 0.00 | 0.14 | 0.14 | 82 | 1011.7 |
| 20260903171228 | 78 | 311 | 2.0 | 3.0 | 0.00 | 0.14 | 0.14 | 81 | 1011.7 |
| 20260903170726 | 78 | 292 | 4.0 | 5.0 | 0.00 | 0.14 | 0.14 | 84 | 1011.6 |
| 20260903170222 | 77 | 330 | 3.0 | 3.0 | 0.00 | 0.14 | 0.14 | 84 | 1011.5 |
| 20260903165720 | 77 | 178 | 3.0 | 4.0 | 0.00 | 0.14 | 0.14 | 83 | 1011.5 |
| 20260903165215 | 76 | 83 | 1.0 | 3.0 | 0.00 | 0.14 | 0.14 | 88 | 1011.7 |
| 20260903164709 | 77 | 303 | 3.0 | 4.0 | 0.00 | 0.14 | 0.14 | 87 | 1011.7 |
| 20260903164206 | 76 | 344 | 0.0 | 4.0 | 0.00 | 0.14 | 0.14 | 84 | 1011.8 |
| 20260903163705 | 76 | 317 | 0.0 | 3.0 | 0.00 | 0.14 | 0.14 | 86 | 1011.8 |
| 20260903163202 | 75 | 277 | 2.0 | 7.0 | 0.00 | 0.14 | 0.14 | 87 | 1011.8 |
| 20260903162657 | 77 | 229 | 2.0 | 3.0 | 0.00 | 0.14 | 0.14 | 87 | 1011.9 |
| 20260903162153 | 76 | 62 | 1.0 | 9.0 | 0.00 | 0.14 | 0.14 | 88 | 1011.9 |
| 20260903161648 | 77 | 193 | 0.0 | 5.0 | 0.00 | 0.14 | 0.14 | 88 | 1012.1 |
| 20260903161138 | 77 | 258 | 1.0 | 5.0 | 0.00 | 0.14 | 0.14 | 88 | 1012.2 |
| 20260903160633 | 75 | 243 | 4.0 | 5.0 | 0.00 | 0.14 | 0.14 | 89 | 1012.3 |
| 20260903160127 | 75 | 196 | 2.0 | 9.0 | 0.00 | 0.14 | 0.14 | 89 | 1012.3 |
| 20260903155626 | 75 | 348 | 0.0 | 2.0 | 0.00 | 0.14 | 0.14 | 89 | 1012.2 |
| 20260903155121 | 75 | 275 | 2.0 | 3.0 | 0.00 | 0.14 | 0.14 | 89 | 1012.2 |
| 20260903154617 | 76 | 303 | 3.0 | 5.0 | 0.00 | 0.14 | 0.14 | 89 | 1012.4 |
| 20260903154114 | 75 | 244 | 3.0 | 7.0 | 0.00 | 0.14 | 0.14 | 89 | 1012.6 |
| 20260903153609 | 74 | 280 | 1.0 | 7.0 | 0.00 | 0.14 | 0.14 | 90 | 1012.2 |
| 20260903153104 | 74 | 297 | 1.0 | 5.0 | 0.00 | 0.14 | 0.14 | 91 | 1012.5 |
| 20260903152600 | 74 | 287 | 1.0 | 7.0 | 0.00 | 0.14 | 0.14 | 91 | 1012.4 |
| 20260903152056 | 74 | 260 | 2.0 | 6.0 | 0.00 | 0.14 | 0.14 | 92 | 1012.3 |
| 20260903151555 | 73 | 280 | 0.0 | 5.0 | 0.00 | 0.14 | 0.14 | 93 | 1012.6 |
| 20260903151051 | 73 | 273 | 2.0 | 8.0 | 0.00 | 0.14 | 0.14 | 93 | 1012.5 |
| 20260903150550 | 73 | 296 | 1.0 | 4.0 | 0.00 | 0.14 | 0.14 | 93 | 1012.5 |
| 20260903150046 | 73 | 277 | 1.0 | 3.0 | 0.00 | 0.14 | 0.14 | 94 | 1012.5 |
| 20260903145545 | 73 | 242 | 2.0 | 6.0 | 0.00 | 0.14 | 0.14 | 93 | 1012.3 |
| 20260903145041 | 73 | 320 | 3.0 | 4.0 | 0.00 | 0.14 | 0.14 | 93 | 1012.5 |
| 20260903144539 | 73 | 318 | 1.0 | 3.0 | 0.00 | 0.14 | 0.14 | 96 | 1012.3 |
| 20260903144036 | 72 | 32 | 1.0 | 2.0 | 0.00 | 0.14 | 0.14 | 97 | 1012.4 |
| 20260903143532 | 72 | 306 | 0.0 | 2.0 | 0.00 | 0.14 | 0.14 | 98 | 1012.4 |
| 20260903143027 | 71 | 312 | 0.0 | 2.0 | 0.00 | 0.14 | 0.14 | 99 | 1012.3 |
| 20260903142523 | 71 | 108 | 2.0 | 3.0 | 0.00 | 0.14 | 0.14 | 99 | 1012.4 |
| 20260903142020 | 70 | 91 | 1.0 | 2.0 | 0.00 | 0.14 | 0.14 | 99 | 1012.4 |
| 20260903141515 | 70 | 119 | 2.0 | 3.0 | 0.00 | 0.14 | 0.14 | 99 | 1012.5 |
| 20260903141010 | 70 | 75 | 2.0 | 3.0 | 0.00 | 0.14 | 0.14 | 99 | 1012.6 |
| 20260903140505 | 70 | 342 | 1.0 | 1.0 | 0.00 | 0.14 | 0.14 | 99 | 1012.5 |
| 20260903140000 | 69 | 106 | 0.0 | 4.0 | 0.00 | 0.14 | 0.14 | 99 | 1012.6 |
| 20260903135456 | 69 | 309 | 0.0 | 2.0 | 0.00 | 0.14 | 0.14 | 99 | 1012.6 |
| 20260903134950 | 69 | 349 | 0.0 | 1.0 | 0.00 | 0.14 | 0.14 | 99 | 1012.7 |
| 20260903134449 | 68 | 83 | 0.0 | 1.0 | 0.00 | 0.14 | 0.14 | 99 | 1012.7 |
| 20260903133947 | 68 | 96 | 1.0 | 2.0 | 0.00 | 0.14 | 0.14 | 99 | 1012.8 |
| 20260903133443 | 68 | 71 | 2.0 | 3.0 | 0.00 | 0.14 | 0.14 | 99 | 1012.9 |
| 20260903132938 | 68 | 106 | 0.0 | 3.0 | 0.00 | 0.14 | 0.14 | 99 | 1012.7 |
| 20260903132433 | 68 | 204 | 0.0 | 1.0 | 0.00 | 0.14 | 0.14 | 99 | 1012.7 |
| 20260903131928 | 68 | 26 | 0.0 | 2.0 | 0.00 | 0.14 | 0.14 | 99 | 1012.9 |
| 20260903131423 | 68 | 9 | 0.0 | 1.0 | 0.00 | 0.14 | 0.14 | 99 | 1013.0 |
| 20260903130921 | 68 | 32 | 1.0 | 2.0 | 0.00 | 0.14 | 0.14 | 99 | 1013.2 |
| 20260903130417 | 67 | 295 | 0.0 | 0.0 | 0.00 | 0.14 | 0.14 | 99 | 1013.1 |
| 20260903125916 | 67 | 24 | 0.0 | 2.0 | 0.00 | 0.14 | 0.14 | 99 | 1013.2 |
| 20260903125416 | 67 | 330 | 0.0 | 1.0 | 0.00 | 0.14 | 0.14 | 99 | 1013.2 |
| 20260903124915 | 66 | 83 | 0.0 | 2.0 | 0.00 | 0.14 | 0.14 | 99 | 1013.3 |
| 20260903124411 | 67 | 345 | 1.0 | 3.0 | 0.00 | 0.14 | 0.14 | 99 | 1013.4 |
| 20260903123909 | 66 | 67 | 2.0 | 3.0 | 0.00 | 0.14 | 0.14 | 99 | 1013.3 |
| 20260903123404 | 66 | 37 | 0.0 | 0.0 | 0.00 | 0.14 | 0.14 | 99 | 1013.5 |
| 20260903122903 | 66 | 42 | 0.0 | 2.0 | 0.00 | 0.14 | 0.14 | 99 | 1013.5 |
| 20260903122358 | 65 | 235 | 0.0 | 1.0 | 0.00 | 0.14 | 0.14 | 99 | 1013.5 |
| 20260903121857 | 65 | 9 | 1.0 | 2.0 | 0.00 | 0.14 | 0.14 | 99 | 1013.5 |
| 20260903121352 | 65 | 305 | 0.0 | 1.0 | 0.00 | 0.14 | 0.14 | 99 | 1013.6 |
| 20260903120848 | 65 | 150 | 0.0 | 2.0 | 0.00 | 0.14 | 0.14 | 99 | 1013.4 |
| 20260903120347 | 65 | 304 | 0.0 | 2.0 | 0.00 | 0.14 | 0.14 | 99 | 1013.8 |
| 20260903115845 | 65 | 337 | 1.0 | 1.0 | 0.00 | 0.14 | 0.14 | 99 | 1013.7 |
| 20260903115340 | 65 | 37 | 0.0 | 2.0 | 0.00 | 0.14 | 0.14 | 99 | 1013.8 |
| 20260903114839 | 64 | 232 | 0.0 | 2.0 | 0.00 | 0.14 | 0.14 | 99 | 1013.8 |
| 20260903114330 | 64 | 331 | 0.0 | 1.0 | 0.00 | 0.14 | 0.14 | 99 | 1013.9 |
| 20260903113825 | 64 | 217 | 0.0 | 2.0 | 0.00 | 0.14 | 0.14 | 99 | 1013.8 |
| 20260903113321 | 65 | 237 | 0.0 | 2.0 | 0.00 | 0.14 | 0.14 | 99 | 1013.9 |
| 20260903112817 | 64 | 150 | 0.0 | 1.0 | 0.00 | 0.14 | 0.14 | 99 | 1014.0 |
| 20260903112313 | 64 | 5 | 0.0 | 1.0 | 0.00 | 0.14 | 0.14 | 99 | 1014.0 |
| 20260903111811 | 64 | 24 | 0.0 | 1.0 | 0.00 | 0.14 | 0.14 | 99 | 1013.9 |
| 20260903111306 | 64 | 324 | 0.0 | 2.0 | 0.00 | 0.14 | 0.14 | 99 | 1014.0 |
| 20260903110802 | 64 | 44 | 0.0 | 0.0 | 0.09 | 0.14 | 0.14 | 99 | 1014.2 |
| 20260903110258 | 64 | 49 | 0.0 | 2.0 | 0.09 | 0.14 | 0.14 | 99 | 1014.0 |
| 20260903105757 | 64 | 129 | 1.0 | 2.0 | 0.00 | 0.13 | 0.13 | 99 | 1014.1 |
| 20260903105253 | 64 | 189 | 0.0 | 2.0 | 0.02 | 0.13 | 0.13 | 99 | 1014.1 |
| 20260903104752 | 64 | 21 | 1.0 | 2.0 | 0.17 | 0.13 | 0.13 | 99 | 1014.1 |
| 20260903104247 | 64 | 50 | 0.0 | 2.0 | 0.12 | 0.11 | 0.11 | 99 | 1014.1 |
| 20260903103743 | 64 | 241 | 0.0 | 1.0 | 0.02 | 0.09 | 0.09 | 99 | 1013.8 |
| 20260903103239 | 64 | 66 | 0.0 | 1.0 | 0.00 | 0.09 | 0.09 | 99 | 1013.7 |
| 20260903102735 | 64 | 175 | 0.0 | 1.0 | 0.00 | 0.09 | 0.09 | 99 | 1013.8 |
| 20260903102234 | 64 | 47 | 0.0 | 1.0 | 0.00 | 0.09 | 0.09 | 99 | 1013.7 |
| 20260903101733 | 64 | 333 | 0.0 | 2.0 | 0.00 | 0.09 | 0.09 | 99 | 1013.6 |
| 20260903101229 | 64 | 355 | 0.0 | 0.0 | 0.00 | 0.09 | 0.09 | 99 | 1013.6 |
| 20260903100724 | 64 | 342 | 0.0 | 1.0 | 0.00 | 0.09 | 0.09 | 99 | 1013.7 |
| 20260903100224 | 64 | 329 | 0.0 | 2.0 | 0.00 | 0.09 | 0.09 | 99 | 1013.6 |
| 20260903095721 | 64 | 254 | 0.0 | 1.0 | 0.00 | 0.09 | 0.09 | 99 | 1013.5 |
| 20260903095216 | 64 | 230 | 0.0 | 1.0 | 0.00 | 0.09 | 0.09 | 99 | 1013.4 |
| 20260903094711 | 64 | 40 | 1.0 | 2.0 | 0.00 | 0.09 | 0.09 | 99 | 1013.4 |
| 20260903094206 | 64 | 189 | 0.0 | 1.0 | 0.00 | 0.09 | 0.09 | 99 | 1013.3 |
| 20260903093701 | 64 | 23 | 0.0 | 3.0 | 0.00 | 0.09 | 0.09 | 99 | 1013.3 |
| 20260903093157 | 64 | 101 | 0.0 | 3.0 | 0.00 | 0.09 | 0.09 | 99 | 1013.4 |
| 20260903092651 | 64 | 305 | 0.0 | 3.0 | 0.00 | 0.09 | 0.09 | 99 | 1013.4 |
| 20260903092145 | 64 | 325 | 1.0 | 2.0 | 0.00 | 0.09 | 0.09 | 99 | 1013.2 |
| 20260903091638 | 64 | 49 | 2.0 | 2.0 | 0.00 | 0.09 | 0.09 | 99 | 1013.4 |
| 20260903091132 | 64 | 237 | 0.0 | 2.0 | 0.00 | 0.09 | 0.09 | 99 | 1013.4 |
| 20260903090628 | 64 | 173 | 0.0 | 2.0 | 0.00 | 0.09 | 0.09 | 99 | 1013.6 |
| 20260903090127 | 64 | 189 | 0.0 | 2.0 | 0.00 | 0.09 | 0.09 | 99 | 1013.6 |
| 20260903085626 | 64 | 342 | 0.0 | 1.0 | 0.02 | 0.09 | 0.09 | 99 | 1013.7 |
| 20260903085121 | 64 | 62 | 0.0 | 1.0 | 0.02 | 0.09 | 0.09 | 99 | 1013.9 |
| 20260903084619 | 64 | 115 | 0.0 | 2.0 | 0.00 | 0.09 | 0.09 | 99 | 1013.9 |
| 20260903084114 | 64 | 93 | 0.0 | 2.0 | 0.00 | 0.09 | 0.09 | 99 | 1013.8 |
| 20260903083609 | 64 | 128 | 0.0 | 2.0 | 0.00 | 0.09 | 0.09 | 99 | 1013.8 |
| 20260903083103 | 64 | 136 | 0.0 | 3.0 | 0.00 | 0.09 | 0.09 | 99 | 1013.9 |
| 20260903082558 | 64 | 36 | 3.0 | 3.0 | 0.00 | 0.09 | 0.09 | 99 | 1013.7 |
| 20260903082054 | 64 | 73 | 0.0 | 2.0 | 0.00 | 0.09 | 0.09 | 99 | 1013.9 |
| 20260903081549 | 64 | 197 | 2.0 | 3.0 | 0.00 | 0.09 | 0.09 | 99 | 1014.0 |
| 20260903081045 | 63 | 216 | 0.0 | 3.0 | 0.00 | 0.09 | 0.09 | 99 | 1014.0 |
| 20260903080541 | 64 | 37 | 0.0 | 2.0 | 0.00 | 0.09 | 0.09 | 99 | 1014.2 |
| 20260903080038 | 63 | 175 | 0.0 | 2.0 | 0.00 | 0.09 | 0.09 | 99 | 1014.2 |
| 20260903075532 | 63 | 79 | 0.0 | 1.0 | 0.00 | 0.09 | 0.09 | 99 | 1014.1 |
| 20260903075027 | 63 | 144 | 0.0 | 2.0 | 0.00 | 0.09 | 0.09 | 99 | 1014.2 |
| 20260903074526 | 63 | 149 | 1.0 | 3.0 | 0.00 | 0.09 | 0.09 | 99 | 1014.0 |
| 20260903074021 | 63 | 215 | 1.0 | 2.0 | 0.00 | 0.09 | 0.09 | 99 | 1014.2 |
| 20260903073516 | 63 | 1 | 1.0 | 2.0 | 0.00 | 0.09 | 0.09 | 99 | 1014.3 |
| 20260903073012 | 63 | 317 | 3.0 | 5.0 | 0.00 | 0.09 | 0.09 | 99 | 1014.4 |
| 20260903072508 | 63 | 161 | 1.0 | 2.0 | 0.00 | 0.09 | 0.09 | 99 | 1014.3 |
| 20260903072005 | 63 | 12 | 0.0 | 2.0 | 0.00 | 0.09 | 0.09 | 99 | 1014.4 |
| 20260903071501 | 63 | 86 | 1.0 | 2.0 | 0.00 | 0.09 | 0.09 | 99 | 1014.5 |
| 20260903070955 | 63 | 113 | 0.0 | 2.0 | 0.00 | 0.09 | 0.09 | 99 | 1014.6 |
| 20260903070450 | 63 | 219 | 1.0 | 3.0 | 0.00 | 0.09 | 0.09 | 99 | 1014.4 |
| 20260903065950 | 63 | 59 | 2.0 | 3.0 | 0.00 | 0.09 | 0.09 | 99 | 1014.2 |
| 20260903065445 | 63 | 113 | 0.0 | 3.0 | 0.00 | 0.09 | 0.09 | 99 | 1014.4 |
| 20260903064944 | 63 | 69 | 1.0 | 2.0 | 0.00 | 0.09 | 0.09 | 99 | 1014.4 |
| 20260903064439 | 63 | 97 | 0.0 | 3.0 | 0.00 | 0.09 | 0.09 | 99 | 1014.7 |
| 20260903063935 | 63 | 81 | 0.0 | 2.0 | 0.00 | 0.09 | 0.09 | 99 | 1014.5 |
| 20260903063430 | 63 | 89 | 2.0 | 4.0 | 0.02 | 0.09 | 0.09 | 99 | 1014.5 |
| 20260903062926 | 63 | 100 | 0.0 | 1.0 | 0.02 | 0.09 | 0.09 | 99 | 1014.4 |
| 20260903062425 | 63 | 175 | 0.0 | 2.0 | 0.02 | 0.08 | 0.08 | 99 | 1014.4 |
| 20260903061921 | 63 | 57 | 1.0 | 2.0 | 0.05 | 0.08 | 0.08 | 99 | 1014.6 |
| 20260903061421 | 63 | 148 | 1.0 | 3.0 | 0.07 | 0.08 | 0.08 | 99 | 1014.6 |
| 20260903060916 | 63 | 109 | 0.0 | 2.0 | 0.09 | 0.07 | 0.07 | 99 | 1014.8 |
| 20260903060416 | 63 | 116 | 1.0 | 2.0 | 0.12 | 0.07 | 0.07 | 99 | 1015.1 |
| 20260903055914 | 63 | 137 | 0.0 | 0.0 | 0.07 | 0.06 | 0.06 | 99 | 1015.4 |
| 20260903055413 | 63 | 175 | 0.0 | 0.0 | 0.07 | 0.05 | 0.05 | 99 | 1015.6 |
| 20260903054907 | 63 | 175 | 0.0 | 0.0 | 0.02 | 0.04 | 0.04 | 99 | 1015.9 |
| 20260903054402 | 63 | 175 | 0.0 | 0.0 | 0.00 | 0.04 | 0.04 | 99 | 1016.0 |
| 20260903053858 | 63 | 175 | 0.0 | 0.0 | 0.07 | 0.04 | 0.04 | 99 | 1016.2 |
| 20260903053353 | 63 | 175 | 0.0 | 0.0 | 0.12 | 0.03 | 0.03 | 99 | 1016.3 |
| 20260903052849 | 63 | 167 | 1.0 | 2.0 | 0.07 | 0.02 | 0.02 | 98 | 1016.3 |
| 20260903052344 | 64 | 217 | 0.0 | 1.0 | 0.02 | 0.01 | 0.01 | 97 | 1016.5 |
| 20260903051840 | 64 | 202 | 0.0 | 0.0 | 0.02 | 0.01 | 0.01 | 97 | 1016.8 |
| 20260903051335 | 64 | 202 | 0.0 | 1.0 | 0.02 | 0.01 | 0.01 | 96 | 1016.8 |
| 20260903050831 | 64 | 175 | 0.0 | 1.0 | 0.02 | 0.00 | 0.00 | 96 | 1016.8 |
| 20260903050330 | 64 | 134 | 0.0 | 0.0 | 0.00 | 0.00 | 0.00 | 96 | 1016.9 |
| 20260903045825 | 64 | 9 | 0.0 | 2.0 | 0.00 | 0.00 | 0.00 | 96 | 1016.9 |
| 20260903045320 | 64 | 132 | 0.0 | 0.0 | 0.00 | 0.00 | 0.00 | 96 | 1016.7 |
| 20260903044817 | 64 | 132 | 0.0 | 0.0 | 0.00 | 0.00 | 0.00 | 96 | 1016.6 |
| 20260903044312 | 64 | 132 | 0.0 | 1.0 | 0.00 | 0.00 | 0.00 | 95 | 1016.4 |
| 20260903043809 | 64 | 125 | 0.0 | 0.0 | 0.00 | 0.00 | 0.00 | 95 | 1016.7 |
| 20260903043308 | 64 | 155 | 0.0 | 0.0 | 0.00 | 0.00 | 0.00 | 95 | 1017.0 |
| 20260903042807 | 64 | 155 | 0.0 | 0.0 | 0.00 | 0.00 | 0.00 | 95 | 1017.1 |
| 20260903042306 | 64 | 155 | 0.0 | 0.0 | 0.00 | 0.00 | 0.00 | 94 | 1017.0 |
| 20260903041759 | 64 | 284 | 0.0 | 0.0 | 0.00 | 0.00 | 0.00 | 93 | 1016.9 |
| 20260903041255 | 64 | 284 | 0.0 | 0.0 | 0.00 | 0.00 | 0.00 | 93 | 1017.0 |
| 20260903040754 | 64 | 284 | 0.0 | 0.0 | 0.00 | 0.00 | 0.00 | 93 | 1017.0 |
| 20260903040249 | 64 | 327 | 2.0 | 2.0 | 0.00 | 0.00 | 0.00 | 92 | 1016.9 |
| 20260903035745 | 65 | 70 | 0.0 | 2.0 | 0.00 | 0.00 | 0.00 | 92 | 1016.7 |
| 20260903035240 | 65 | 189 | 1.0 | 2.0 | 0.00 | 0.00 | 0.00 | 90 | 1016.9 |
| 20260903034741 | 65 | 65 | 0.0 | 1.0 | 0.00 | 0.00 | 0.00 | 91 | 1017.3 |
| 20260903034236 | 65 | 119 | 0.0 | 0.0 | 0.00 | 0.00 | 0.00 | 90 | 1017.0 |
| 20260903033731 | 65 | 36 | 1.0 | 2.0 | 0.00 | 0.00 | 0.00 | 90 | 1017.0 |
| 20260903033226 | 64 | 189 | 0.0 | 0.0 | 0.00 | 0.00 | 0.00 | 90 | 1016.6 |
| 20260903032720 | 64 | 44 | 0.0 | 2.0 | 0.00 | 0.00 | 0.00 | 91 | 1016.6 |
| 20260903032216 | 64 | 318 | 0.0 | 1.0 | 0.00 | 0.00 | 0.00 | 92 | 1016.6 |
| 20260903031712 | 64 | 150 | 0.0 | 2.0 | 0.00 | 0.00 | 0.00 | 92 | 1016.5 |
| 20260903031205 | 64 | 349 | 0.0 | 1.0 | 0.00 | 0.00 | 0.00 | 93 | 1016.7 |
| 20260903030702 | 65 | 317 | 0.0 | 0.0 | 0.00 | 0.00 | 0.00 | 93 | 1016.8 |
| 20260903030157 | 65 | 73 | 0.0 | 0.0 | 0.00 | 0.00 | 0.00 | 92 | 1016.7 |
| 20260903025652 | 65 | 241 | 0.0 | 1.0 | 0.00 | 0.00 | 0.00 | 92 | 1017.0 |
| 20260903025148 | 65 | 242 | 0.0 | 0.0 | 0.00 | 0.00 | 0.00 | 89 | 1017.3 |
| 20260903024643 | 65 | 83 | 0.0 | 0.0 | 0.00 | 0.00 | 0.00 | 89 | 1017.4 |
| 20260903024142 | 65 | 83 | 0.0 | 1.0 | 0.00 | 0.00 | 0.00 | 89 | 1017.4 |
| 20260903023638 | 65 | 62 | 0.0 | 2.0 | 0.00 | 0.00 | 0.00 | 89 | 1017.7 |
| 20260903023137 | 65 | 155 | 0.0 | 2.0 | 0.00 | 0.00 | 0.00 | 90 | 1017.6 |
| 20260903022632 | 65 | 122 | 0.0 | 2.0 | 0.00 | 0.00 | 0.00 | 92 | 1017.8 |
| 20260903022132 | 64 | 301 | 1.0 | 3.0 | 0.00 | 0.00 | 0.00 | 91 | 1018.0 |
| 20260903021632 | 64 | 144 | 0.0 | 0.0 | 0.00 | 0.00 | 0.00 | 94 | 1018.0 |
| 20260903021126 | 64 | 203 | 0.0 | 1.0 | 0.00 | 0.00 | 0.00 | 95 | 1018.0 |
| 20260903020621 | 65 | 213 | 0.0 | 0.0 | 0.00 | 0.00 | 0.00 | 94 | 1018.3 |
| 20260903020116 | 65 | 150 | 0.0 | 0.0 | 0.00 | 0.00 | 0.00 | 94 | 1018.2 |
| 20260903015612 | 65 | 266 | 0.0 | 0.0 | 0.00 | 0.00 | 0.00 | 92 | 1018.4 |
| 20260903015107 | 66 | 286 | 1.0 | 2.0 | 0.00 | 0.00 | 0.00 | 91 | 1018.4 |
| 20260903014606 | 66 | 83 | 0.0 | 2.0 | 0.00 | 0.00 | 0.00 | 91 | 1018.5 |
| 20260903014101 | 66 | 9 | 1.0 | 2.0 | 0.00 | 0.00 | 0.00 | 90 | 1018.5 |
| 20260903013601 | 66 | 46 | 1.0 | 2.0 | 0.00 | 0.00 | 0.00 | 87 | 1018.3 |
| 20260903013050 | 66 | 31 | 3.0 | 3.0 | 0.00 | 0.00 | 0.00 | 88 | 1018.0 |
| 20260903012549 | 66 | 280 | 0.0 | 2.0 | 0.00 | 0.00 | 0.00 | 88 | 1017.8 |
| 20260903012043 | 66 | 269 | 1.0 | 3.0 | 0.00 | 0.00 | 0.00 | 89 | 1017.8 |
| 20260903011543 | 66 | 9 | 0.0 | 2.0 | 0.00 | 0.00 | 0.00 | 90 | 1017.6 |
| 20260903011038 | 65 | 297 | 1.0 | 2.0 | 0.00 | 0.00 | 0.00 | 89 | 1017.6 |
| 20260903010533 | 65 | 5 | 2.0 | 2.0 | 0.00 | 0.00 | 0.00 | 92 | 1017.5 |
| 20260903010031 | 65 | 0 | 0.0 | 4.0 | 0.00 | 0.00 | 0.00 | 93 | 1017.6 |